Location: Mascot Post Office (historical)
(40.2645°N, 99.5462°W)
Time: 02:39:10
(UTC+00:00)

Cosmos 1825 - Pass Details

Date: 14 July 2020
Orbit: 502 x 509 km, 82.5° (Epoch: 14 August)

Event Time Altitude Azimuth Distance (km) Brightness Sun altitude
Exits shadow 03:25:55 12° 88° (E) 1,621 4.3 -12.8°
Maximum altitude 03:26:05 12° 85° (E) 1,620 4.3 -12.9°
Drops below altitude 10° 03:27:28 10° 64° (ENE) 1,731 4.7 -13.1°
Sets 03:30:50 0° 32° (NNE) 2,624 6.0 -13.5°
